AAL511 KMIA-MYGF

Flight info

Callsign AAL511
Flight time 0h 26m
Altitude 15000
Route FOLZZ3 PADUS
Aircraft E75L/M-SDE3GILORVW/S

Departure

Time 2026-04-26 01:01
Airport Miami International Airport (KMIA)

Arrival

Time 2026-04-26 01:28
Airport Grand Bahama International Airport (MYGF)
Time Latitude Longitude Altitude Speed Heading
2026-04-26 00:41 25.79734 -80.28666 17 ft 0 kts 139°
2026-04-26 00:48 25.79738 -80.28671 17 ft 4 kts 139°
2026-04-26 00:48 25.79757 -80.28684 18 ft 4 kts 192°
2026-04-26 00:48 25.79763 -80.28672 18 ft 3 kts 267°
2026-04-26 00:48 25.79764 -80.28654 17 ft 1 kts 267°
2026-04-26 00:56 25.79764 -80.28657 17 ft 2 kts 267°
2026-04-26 00:56 25.79763 -80.28685 17 ft 6 kts 267°
2026-04-26 00:56 25.79762 -80.28690 17 ft 0 kts 266°
2026-04-26 00:57 25.79762 -80.28704 18 ft 5 kts 266°
2026-04-26 00:58 25.79759 -80.28761 17 ft 10 kts 266°
2026-04-26 00:58 25.79790 -80.28812 18 ft 10 kts 352°
2026-04-26 00:58 25.79879 -80.28822 19 ft 15 kts 356°
2026-04-26 00:58 25.79991 -80.28834 20 ft 16 kts 326°
2026-04-26 00:59 25.80011 -80.28965 18 ft 21 kts 269°
2026-04-26 00:59 25.80001 -80.29149 19 ft 26 kts 267°
2026-04-26 00:59 25.79995 -80.29340 16 ft 24 kts 268°
2026-04-26 00:59 25.79983 -80.29538 11 ft 27 kts 271°
2026-04-26 01:00 25.79981 -80.29719 12 ft 23 kts 270°
2026-04-26 01:00 25.79976 -80.29876 10 ft 23 kts 265°
2026-04-26 01:00 25.79979 -80.30074 13 ft 27 kts 286°
2026-04-26 01:00 25.80058 -80.30131 13 ft 8 kts 15°
2026-04-26 01:01 25.80072 -80.30056 11 ft 20 kts 89°
2026-04-26 01:01 25.80088 -80.29670 12 ft 86 kts 87°
2026-04-26 01:01 25.80127 -80.28735 87 ft 153 kts 87°
2026-04-26 01:01 25.80208 -80.27493 982 ft 162 kts 86°
2026-04-26 01:02 25.80320 -80.26275 2266 ft 157 kts 88°
2026-04-26 01:02 25.80070 -80.24977 2774 ft 202 kts 117°
2026-04-26 01:02 25.79275 -80.23369 2759 ft 273 kts 120°
2026-04-26 01:02 25.78399 -80.21519 2643 ft 264 kts 117°
2026-04-26 01:03 25.77624 -80.19723 2510 ft 257 kts 118°
2026-04-26 01:03 25.76771 -80.17965 2403 ft 257 kts 119°
2026-04-26 01:03 25.75921 -80.16233 2319 ft 255 kts 119°
2026-04-26 01:03 25.75088 -80.14552 2613 ft 256 kts 120°
2026-04-26 01:04 25.74402 -80.12718 3716 ft 261 kts 100°
2026-04-26 01:04 25.74596 -80.10713 4787 ft 268 kts 68°
2026-04-26 01:04 25.75515 -80.08901 5833 ft 272 kts 57°
2026-04-26 01:04 25.76490 -80.07326 6741 ft 275 kts 52°
2026-04-26 01:05 25.77718 -80.05676 7639 ft 279 kts 48°
2026-04-26 01:05 25.79000 -80.04026 8674 ft 286 kts 47°
2026-04-26 01:05 25.80311 -80.02388 9723 ft 278 kts 50°
2026-04-26 01:05 25.81591 -80.00740 10456 ft 289 kts 50°
2026-04-26 01:06 25.82944 -79.99013 10940 ft 304 kts 48°
2026-04-26 01:06 25.84363 -79.97215 11570 ft 312 kts 47°
2026-04-26 01:06 25.85802 -79.95388 12313 ft 317 kts 47°
2026-04-26 01:06 25.87274 -79.93523 13008 ft 325 kts 46°
2026-04-26 01:07 25.88765 -79.91633 13638 ft 334 kts 46°
2026-04-26 01:07 25.90304 -79.89675 14413 ft 339 kts 46°
2026-04-26 01:07 25.91865 -79.87686 15203 ft 344 kts 46°
2026-04-26 01:07 25.93454 -79.85663 15979 ft 349 kts 46°
2026-04-26 01:08 25.95060 -79.83614 16691 ft 354 kts 46°
2026-04-26 01:08 25.96658 -79.81577 16851 ft 353 kts 46°
2026-04-26 01:08 25.98289 -79.79500 16938 ft 359 kts 46°
2026-04-26 01:08 25.99927 -79.77408 16989 ft 359 kts 46°
2026-04-26 01:09 26.01565 -79.75318 17004 ft 358 kts 46°
2026-04-26 01:09 26.03180 -79.73254 17014 ft 358 kts 46°
2026-04-26 01:09 26.04816 -79.71165 17013 ft 359 kts 46°
2026-04-26 01:09 26.06455 -79.69070 17005 ft 358 kts 46°
2026-04-26 01:10 26.08092 -79.66979 17015 ft 359 kts 46°
2026-04-26 01:10 26.09727 -79.64885 17012 ft 358 kts 47°
2026-04-26 01:10 26.11258 -79.62688 17003 ft 360 kts 52°
2026-04-26 01:10 26.12722 -79.60427 17010 ft 360 kts 52°
2026-04-26 01:11 26.14169 -79.58156 17014 ft 360 kts 52°
2026-04-26 01:11 26.15614 -79.55880 17008 ft 360 kts 52°
2026-04-26 01:11 26.17040 -79.53632 17006 ft 360 kts 52°
2026-04-26 01:11 26.18484 -79.51355 17012 ft 360 kts 52°
2026-04-26 01:12 26.19926 -79.49080 17012 ft 360 kts 52°
2026-04-26 01:12 26.21370 -79.46801 17007 ft 360 kts 52°
2026-04-26 01:12 26.22814 -79.44524 17009 ft 360 kts 52°
2026-04-26 01:12 26.24255 -79.42249 17016 ft 360 kts 52°
2026-04-26 01:13 26.25696 -79.39970 17002 ft 360 kts 52°
2026-04-26 01:13 26.27165 -79.37715 16990 ft 359 kts 47°
2026-04-26 01:13 26.28908 -79.35756 16996 ft 350 kts 40°
2026-04-26 01:13 26.30684 -79.34002 16813 ft 335 kts 38°
2026-04-26 01:14 26.32346 -79.32278 16542 ft 326 kts 42°
2026-04-26 01:14 26.33929 -79.30513 16271 ft 317 kts 42°
2026-04-26 01:14 26.35460 -79.28788 16002 ft 309 kts 42°
2026-04-26 01:14 26.36770 -79.26921 15726 ft 306 kts 62°
2026-04-26 01:15 26.37387 -79.24668 15506 ft 300 kts 76°
2026-04-26 01:15 26.37783 -79.22427 15387 ft 290 kts 77°
2026-04-26 01:15 26.38148 -79.20242 15110 ft 286 kts 77°
2026-04-26 01:15 26.38530 -79.18011 14471 ft 295 kts 77°
2026-04-26 01:16 26.38973 -79.15849 13836 ft 285 kts 72°
2026-04-26 01:16 26.39521 -79.13757 13194 ft 278 kts 71°
2026-04-26 01:16 26.40071 -79.11721 12565 ft 271 kts 70°
2026-04-26 01:16 26.40627 -79.09701 11981 ft 274 kts 71°
2026-04-26 01:17 26.41184 -79.07687 11424 ft 268 kts 68°
2026-04-26 01:17 26.42150 -79.06015 10774 ft 251 kts 37°
2026-04-26 01:17 26.43678 -79.05221 10115 ft 241 kts
2026-04-26 01:17 26.45298 -79.05462 9490 ft 233 kts 337°
2026-04-26 01:18 26.46546 -79.06534 8875 ft 229 kts 301°
2026-04-26 01:18 26.46952 -79.08187 8290 ft 227 kts 265°
2026-04-26 01:18 26.46496 -79.09852 7705 ft 225 kts 246°
2026-04-26 01:18 26.45810 -79.11425 7101 ft 226 kts 243°
2026-04-26 01:19 26.45077 -79.12975 6498 ft 225 kts 241°
2026-04-26 01:19 26.44018 -79.14225 5895 ft 225 kts 207°
2026-04-26 01:19 26.42494 -79.14541 5173 ft 230 kts 170°
2026-04-26 01:19 26.41053 -79.13806 4458 ft 231 kts 142°
2026-04-26 01:20 26.40011 -79.12470 3736 ft 231 kts 111°
2026-04-26 01:20 26.39851 -79.10723 3023 ft 229 kts 75°
2026-04-26 01:20 26.40365 -79.09011 2341 ft 239 kts 68°
2026-04-26 01:20 26.40981 -79.07366 2173 ft 225 kts 67°
2026-04-26 01:21 26.41600 -79.05771 2087 ft 222 kts 67°
2026-04-26 01:21 26.42131 -79.04169 2030 ft 218 kts 72°
2026-04-26 01:21 26.42583 -79.02568 2002 ft 215 kts 73°
2026-04-26 01:21 26.43017 -79.00960 2008 ft 218 kts 73°
2026-04-26 01:22 26.43454 -78.99331 2018 ft 221 kts 73°
2026-04-26 01:22 26.43899 -78.97681 2011 ft 223 kts 73°
2026-04-26 01:22 26.44352 -78.96022 2004 ft 225 kts 73°
2026-04-26 01:22 26.44800 -78.94372 2007 ft 226 kts 73°
2026-04-26 01:23 26.45256 -78.92686 2012 ft 227 kts 73°
2026-04-26 01:23 26.45726 -78.90998 2007 ft 228 kts 71°
2026-04-26 01:23 26.46264 -78.89355 2000 ft 223 kts 69°
2026-04-26 01:23 26.46830 -78.87765 2002 ft 217 kts 64°
2026-04-26 01:24 26.47554 -78.86330 2014 ft 206 kts 60°
2026-04-26 01:24 26.48223 -78.84984 2001 ft 191 kts 63°
2026-04-26 01:24 26.48832 -78.83718 1980 ft 178 kts 62°
2026-04-26 01:24 26.49402 -78.82582 1970 ft 161 kts 62°
2026-04-26 01:25 26.49925 -78.81537 1941 ft 146 kts 62°
2026-04-26 01:25 26.50394 -78.80593 1834 ft 135 kts 64°
2026-04-26 01:25 26.50821 -78.79684 1663 ft 131 kts 62°
2026-04-26 01:25 26.51266 -78.78792 1455 ft 131 kts 62°
2026-04-26 01:26 26.51713 -78.77907 1253 ft 131 kts 62°
2026-04-26 01:26 26.52156 -78.77017 1100 ft 132 kts 61°
2026-04-26 01:26 26.52598 -78.76109 875 ft 133 kts 62°
2026-04-26 01:26 26.53043 -78.75218 718 ft 131 kts 62°
2026-04-26 01:27 26.53468 -78.74341 598 ft 128 kts 61°
2026-04-26 01:27 26.53918 -78.73481 464 ft 130 kts 61°
2026-04-26 01:27 26.54358 -78.72592 312 ft 131 kts 61°
2026-04-26 01:27 26.54800 -78.71703 155 ft 130 kts 62°
2026-04-26 01:28 26.55234 -78.70839 27 ft 124 kts 60°
2026-04-26 01:28 26.55599 -78.70100 23 ft 92 kts 62°
2026-04-26 01:28 26.55801 -78.69701 24 ft 22 kts 59°
2026-04-26 01:28 26.55878 -78.69546 22 ft 24 kts 76°
2026-04-26 01:29 26.55806 -78.69435 22 ft 19 kts 202°
2026-04-26 01:29 26.55699 -78.69531 23 ft 22 kts 221°
2026-04-26 01:29 26.55577 -78.69651 24 ft 25 kts 221°
2026-04-26 01:29 26.55443 -78.69782 24 ft 26 kts 221°
2026-04-26 01:30 26.55300 -78.69920 22 ft 29 kts 221°
2026-04-26 01:30 26.55150 -78.70063 23 ft 27 kts 220°
2026-04-26 01:30 26.55024 -78.70185 23 ft 20 kts 219°
2026-04-26 01:30 26.54941 -78.70252 22 ft 12 kts 188°
2026-04-26 01:31 26.54892 -78.70254 22 ft 2 kts 181°
2026-04-26 01:31 26.54853 -78.70255 22 ft 1 kts 198°
2026-04-26 01:31 26.54850 -78.70258 22 ft 0 kts 230°
2026-04-26 01:31 26.54850 -78.70259 22 ft 0 kts 242°
2026-04-26 01:32 26.54850 -78.70260 22 ft 0 kts 263°
2026-04-26 01:32 26.54850 -78.70265 22 ft 0 kts 268°
2026-04-26 01:32 26.54847 -78.70267 22 ft 0 kts 277°